Weather reports worldwide

Advertisment
Girona/Costa Brava, Spain (8184): temperature & dewpoint: 18.08.2019 07:00:00 - 24.08.2019 07:00:00 (CEST)Girona/Costa Brava, Spain (8184): wind speed: 18.08.2019 07:00:00 - 24.08.2019 07:00:00 (CEST)Girona/Costa Brava, Spain (8184): wind direction: 18.08.2019 07:00:00 - 24.08.2019 07:00:00 (CEST)Girona/Costa Brava, Spain (8184): reduced air pressure: 18.08.2019 07:00:00 - 24.08.2019 07:00:00 (CEST)Girona/Costa Brava, Spain (8184): visibility: 18.08.2019 07:00:00 - 24.08.2019 07:00:00 (CEST)
Date & Time tt [°C] td [°C] ff [km/h] ff [kn] dd ppp [hPa] vv [km]
24.08.2019 07:00:00 16,5 14,5 5 3 NNE 1018,4 -
24.08.2019 06:00:00 17,1 14,6 0 0 N 1018,5 -
24.08.2019 05:00:00 17,6 14,7 0 0 N 1018,3 -
24.08.2019 04:00:00 17,9 14,2 5 3 ENE 1018,5 -
24.08.2019 03:00:00 18,6 15,1 0 0 N 1018,4 -
24.08.2019 02:00:00 18,8 14,9 2 1 NE 1018,5 -
24.08.2019 01:00:00 19,6 14,9 4 2 SW 1018,4 -
24.08.2019 00:00:00 20,3 15,1 4 2 ENE 1018,2 -
23.08.2019 23:00:00 21,6 15,0 0 0 N 1018,1 -
23.08.2019 22:00:00 22,7 15,0 5 3 W 1018,1 -
23.08.2019 21:00:00 24,2 14,3 9 5 SSW 1017,8 -
23.08.2019 20:00:00 26,3 15,0 15 8 S 1017,5 30
23.08.2019 19:00:00 27,9 14,5 21 11 SSW 1017,5 -
23.08.2019 18:00:00 30,0 13,2 24 13 S 1017,3 -
23.08.2019 17:00:00 31,7 13,5 22 12 SSW 1017,1 -
23.08.2019 16:00:00 32,1 13,5 22 12 SSW 1017,4 -
23.08.2019 15:00:00 32,7 13,8 18 10 S 1017,7 -
23.08.2019 14:00:00 32,9 13,2 8 4 SSW 1017,7 -
23.08.2019 13:00:00 32,1 12,4 8 4 ESE 1018,2 -
23.08.2019 12:00:00 30,2 12,6 5 3 ENE 1018,8 -
23.08.2019 11:00:00 28,5 12,8 5 3 E 1019,3 -
23.08.2019 10:00:00 26,0 12,9 5 3 ENE 1019,6 -
23.08.2019 09:00:00 21,6 13,0 4 2 S 1019,9 -
23.08.2019 08:00:00 18,6 12,3 0 0 N 1019,7 30
23.08.2019 07:00:00 16,2 11,8 4 2 NE 1019,6 -
23.08.2019 06:00:00 16,2 12,2 4 2 SSW 1019,6 -
23.08.2019 05:00:00 16,6 12,1 4 2 NNE 1019,5 15
23.08.2019 04:00:00 16,5 12,6 8 4 NE 1019,9 -
23.08.2019 03:00:00 16,4 12,6 5 3 NE 1019,8 -
23.08.2019 02:00:00 17,1 13,4 4 2 SW 1020,0 15
23.08.2019 01:00:00 18,3 13,7 0 0 N 1020,0 -
23.08.2019 00:00:00 20,9 13,6 8 4 NNW 1019,5 -
22.08.2019 23:00:00 20,4 14,5 8 4 NNE 1019,6 -
22.08.2019 22:00:00 22,2 14,7 2 1 W 1019,5 -
22.08.2019 21:00:00 24,2 14,6 8 4 SW 1019,0 -
22.08.2019 20:00:00 26,8 13,2 13 7 S 1018,3 -
22.08.2019 19:00:00 28,5 12,9 18 10 SSW 1018,0 -
22.08.2019 18:00:00 29,6 13,1 21 11 SSW 1018,0 -
22.08.2019 17:00:00 30,8 13,6 26 14 S 1017,8 25
22.08.2019 16:00:00 32,1 12,7 18 10 S 1017,7 -
22.08.2019 15:00:00 33,2 2,1 8 4 ESE 1017,8 -
22.08.2019 14:00:00 31,8 2,2 13 7 ENE 1018,1 30
22.08.2019 13:00:00 31,0 2,8 11 6 NE 1018,6 -
22.08.2019 12:00:00 30,1 6,2 8 4 NE 1018,8 -
22.08.2019 11:00:00 27,6 8,1 9 5 NE 1019,0 -
22.08.2019 10:00:00 24,3 12,8 5 3 ENE 1019,2 -
22.08.2019 09:00:00 21,2 12,5 5 3 N 1019,0 -
22.08.2019 08:00:00 17,8 13,1 4 2 WNW 1018,9 -
22.08.2019 07:00:00 18,3 12,9 5 3 W 1018,5 -
22.08.2019 06:00:00 18,6 13,2 8 4 SSW 1018,2 -
22.08.2019 05:00:00 20,1 11,4 8 4 NNW 1018,3 -
22.08.2019 04:00:00 19,4 14,0 2 1 N 1018,3 -
22.08.2019 03:00:00 19,6 14,6 0 0 N 1018,4 -
22.08.2019 02:00:00 19,8 14,4 0 0 N 1018,8 -
22.08.2019 01:00:00 20,2 14,3 9 5 NNW 1018,8 -
22.08.2019 00:00:00 20,0 14,8 0 0 N 1019,1 -
21.08.2019 23:00:00 21,3 15,2 2 1 ENE 1018,8 -
21.08.2019 22:00:00 22,1 15,2 5 3 W 1018,6 -
21.08.2019 21:00:00 23,2 14,2 8 4 SSW 1018,3 -
21.08.2019 20:00:00 24,5 14,0 9 5 SW 1017,6 -
21.08.2019 19:00:00 25,9 13,1 16 9 SSW 1017,5 -
21.08.2019 18:00:00 28,3 12,2 16 9 S 1017,4 -
21.08.2019 17:00:00 28,8 12,5 16 9 SSW 1017,3 20
21.08.2019 16:00:00 29,6 13,8 24 13 S 1017,1 -
21.08.2019 15:00:00 30,7 12,4 16 9 S 1017,1 -
21.08.2019 14:00:00 30,4 12,5 21 11 S 1017,5 30
21.08.2019 13:00:00 30,2 8,3 5 3 NNE 1018,1 -
21.08.2019 12:00:00 28,1 13,2 8 4 S 1018,6 -
21.08.2019 11:00:00 25,8 14,2 8 4 S 1019,2 -
21.08.2019 10:00:00 23,1 13,7 5 3 S 1019,4 -
21.08.2019 09:00:00 19,6 12,1 2 1 E 1019,8 -
21.08.2019 08:00:00 15,2 11,4 0 0 N 1020,1 -
21.08.2019 07:00:00 13,1 10,3 0 0 N 1020,2 -
21.08.2019 06:00:00 13,4 10,7 4 2 WSW 1019,9 -
21.08.2019 05:00:00 14,7 10,3 0 0 N 1020,2 -
21.08.2019 04:00:00 17,0 10,6 11 6 NNW 1020,4 -
21.08.2019 03:00:00 15,7 10,5 8 4 N 1020,7 -
21.08.2019 02:00:00 16,3 9,7 0 0 N 1020,8 15
21.08.2019 01:00:00 18,5 9,6 9 5 NNW 1020,8 -
21.08.2019 00:00:00 18,9 9,4 9 5 N 1021,0 -
20.08.2019 23:00:00 20,0 8,6 8 4 N 1020,9 15
20.08.2019 22:00:00 21,6 8,5 15 8 NE 1020,4 -
20.08.2019 21:00:00 23,3 10,4 22 12 NE 1019,6 -
20.08.2019 20:00:00 24,6 11,5 24 13 NE 1019,1 30
20.08.2019 19:00:00 25,9 12,0 22 12 NE 1018,4 -
20.08.2019 18:00:00 24,5 12,4 29 16 NE 1018,5 -
20.08.2019 17:00:00 26,4 12,8 24 13 NE 1018,0 -
20.08.2019 16:00:00 28,0 13,9 9 5 NNW 1018,3 -
20.08.2019 15:00:00 26,9 11,0 21 11 NE 1018,8 -
20.08.2019 14:00:00 28,0 10,7 28 15 ENE 1018,4 -
20.08.2019 13:00:00 28,2 11,1 28 15 NE 1018,2 -
20.08.2019 12:00:00 27,6 10,6 26 14 NNE 1017,7 -
20.08.2019 11:00:00 26,6 13,9 11 6 NNE 1017,5 -
20.08.2019 10:00:00 24,9 14,4 11 6 ENE 1017,4 -
20.08.2019 09:00:00 21,8 13,4 13 7 NNE 1017,7 -
20.08.2019 08:00:00 18,9 14,4 0 0 N 1017,9 -
20.08.2019 07:00:00 18,4 13,9 8 4 N 1017,2 -
20.08.2019 06:00:00 19,3 13,2 8 4 N 1016,3 -
20.08.2019 05:00:00 19,7 13,4 8 4 N 1016,6 -
20.08.2019 04:00:00 20,6 13,8 5 3 NNE 1016,8 -
20.08.2019 03:00:00 20,7 14,1 8 4 NE 1016,9 -
20.08.2019 02:00:00 21,6 14,0 8 4 NNE 1017,1 -
20.08.2019 01:00:00 22,4 13,7 11 6 NNE 1017,2 -
20.08.2019 00:00:00 22,8 13,3 15 8 NNE 1017,2 -
19.08.2019 23:00:00 23,0 15,8 8 4 NNE 1017,4 2,0
19.08.2019 22:00:00 23,2 15,6 8 4 NE 1017,4 -
19.08.2019 21:00:00 23,9 15,4 11 6 E 1016,4 -
19.08.2019 20:00:00 25,3 15,8 13 7 E 1016,2 -
19.08.2019 19:00:00 26,5 15,5 16 9 E 1015,7 -
19.08.2019 18:00:00 28,5 15,0 18 10 E 1015,6 -
19.08.2019 17:00:00 28,5 14,7 18 10 E 1015,5 -
19.08.2019 16:00:00 30,5 15,4 18 10 ESE 1015,0 -
19.08.2019 15:00:00 32,2 16,2 16 9 SE 1014,9 -
19.08.2019 14:00:00 31,8 16,5 18 10 S 1014,6 30
19.08.2019 13:00:00 31,0 17,3 9 5 SE 1015,1 -
19.08.2019 12:00:00 28,2 18,6 4 2 WNW 1015,3 -
19.08.2019 11:00:00 28,2 19,6 5 3 S 1015,0 30
19.08.2019 10:00:00 25,5 18,1 9 5 NNE 1015,2 -
19.08.2019 09:00:00 23,0 18,0 8 4 NE 1015,0 -
19.08.2019 08:00:00 22,2 18,8 11 6 NNE 1014,8 -
19.08.2019 07:00:00 21,8 19,9 13 7 NNE 1014,3 -
19.08.2019 06:00:00 22,3 21,5 8 4 N 1013,8 -
19.08.2019 05:00:00 22,8 21,8 8 4 N 1013,8 -
19.08.2019 04:00:00 23,1 21,9 8 4 N 1014,2 -
19.08.2019 03:00:00 23,5 21,9 9 5 NNE 1014,0 -
19.08.2019 02:00:00 23,7 22,5 9 5 NNE 1014,2 20
19.08.2019 01:00:00 23,8 22,4 8 4 NNE 1014,5 -
19.08.2019 00:00:00 23,7 22,0 11 6 NNE 1013,8 -
18.08.2019 23:00:00 24,2 21,5 2 1 NNE 1012,9 20
18.08.2019 22:00:00 25,0 22,1 8 4 S 1012,2 -
18.08.2019 21:00:00 25,8 21,5 8 4 SW 1011,5 -
18.08.2019 20:00:00 27,5 21,1 13 7 S 1010,4 20
18.08.2019 19:00:00 29,2 21,5 15 8 SSE 1010,2 -
18.08.2019 18:00:00 30,4 21,8 24 13 SSE 1009,3 -
18.08.2019 17:00:00 31,6 21,2 35 19 S 1008,8 30
18.08.2019 16:00:00 32,4 21,3 39 21 S 1008,8 -
18.08.2019 15:00:00 32,8 20,7 42 23 S 1009,0 -
18.08.2019 14:00:00 33,4 20,5 37 20 SSW 1009,4 30
18.08.2019 13:00:00 33,2 19,8 34 18 S 1010,0 -
18.08.2019 12:00:00 33,1 14,8 35 19 SSW 1010,4 -
18.08.2019 11:00:00 30,8 17,8 22 12 SSW 1010,8 30
18.08.2019 10:00:00 28,0 19,5 16 9 SSW 1011,1 -
18.08.2019 09:00:00 24,2 18,4 9 5 SW 1011,6 30
18.08.2019 08:00:00 21,2 17,5 9 5 SW 1011,8 -
18.08.2019 07:00:00 19,6 16,3 9 5 SSW 1011,9 -

tt = temperature
td = dewpoint
ff = wind speed
dd = wind direction
ppp = reduced air pressure
vv = visibility

Next stations